SCP
0 0 -0 -0 0 -0 -0 -0 0 -0 0 -0 0 -0 -0 0 0 0 0 0 0 0 0 0 0 -0 -0 -0 -0 -0 -0 0 0 0 0 -0 0 0 0 0 0 0 0 0
-0 -0 0 -0 -0 -0 -0 -0 -0 -0 -0 -0 -0 -0 -0 0 0 0 0 0 -0 -0 0 0 0 -0 -0 -0 -0 0 0 0 0 0 -0 0 0 0 0 0 0 0 0 0
0 -0 0 -0 -0 0 0 0 -0 -0 0 0 -0 -0 -0 -0 0 0 0 0 0 0 -0 0 0 -0 -0 0 0 0 0 0 0 0 0 0 0 0 0 0 0 0 0 0
-0 -0 -0 0 0 0 0 0 0 -0 -0 -0 -0 -0 0 0 0 0 0 0 0 0 0 0 0 -0 -0 -0 -0 0 0 0 0 0 0 0 0 0 0 0 0 0 0 0
-0 -0 -0 0 0 0 -0 -0 -0 0 -0 -0 -0 -0 0 0 0 0 0 0 0 0 0 0 0 0 0 0 0 0 0 0 0 0 0 0 0 0 0 0 0 0 0 0
0 -0 0 -0 0 0 0 -0 0 -0 0 0 -0 -0 -0 0 0 0 0 0 0 0 0 0 0 0 -0 -0 0 0 -0 0 0 0 0 0 0 0 0 0 0 0 0 0
-0 -0 0 0 0 0 0 0 -0 -0 0 0 -0 -0 -0 0 0 0 0 0 0 0 0 0 0 0 0 0 0 -0 0 0 0 0 0 0 0 0 0 0 0 0 0 0
0 0 0 -0 -0 -0 0 -0 -0 0 -0 0 -0 -0 -0 -0 -0 -0 -0 0 0 0 0 0 0 0 -0 -0 0 0 0 0 0 0 0 0 0 0 0 0 0 0 0 0
-0 0 0 0 0 -0 0 0 0 0 -0 0 -0 -0 -0 -0 -0 -0 -0 -0 0 0 0 0 0 0 0 0 -0 -0 0 0 0 0 0 0 0 0 0 0 0 0 0 0
0 0 0 0 0 0 0 0 -0 0 0 0 0 -0 -0 -0 -0 -0 -0 0 0 0 0 0 0 0 0 -0 -0 -0 -0 -0 -0 -0 0 0 0 0 0 0 0 0 0 0
0 0 0 -0 -0 0 0 0 0 0 0 0 0 0 -0 0 -0 -0 -0 -0 -0 0 -0 -0 0 0 0 0 -0 0 0 0 -0 0 0 0 0 0 0 0 0 0 0 0
0 0 -0 0 -0 -0 -0 -0 -0 -0 0 0 0 0 0 0 0 0 0 0 -0 -0 -0 0 -0 -0 -0 -0 -0 -0 -0 -0 0 0 0 0 0 -0 0 0 0 0 0 0
0 0 0 0 0 0 -0 -0 -0 0 0 0 0 0 0 0 0 0 0 0 0 0 0 -0 -0 0 -0 -0 -0 -0 -0 -0 -0 -0 0 0 0 0 0 -0 -0 0 0 0
0 0 -0 0 0 -0 0 0 0 0 0 0 0 0 0 0 0 0 0 0 0 0 0 0 0 -0 -0 -0 0 0 -0 0 0 0 0 0 0 0 0 0 0 0 0 0
0 0 0 0 0 0 0 0 0 0 0 0 0 0 0 0 0 0 0 0 0 0 0 0 0 0 -0 -0 -0 -0 -0 -0 -0 -0 -0 -0 0 0 0 0 -0 -0 0 0
0 0 0 0 0 0 0 0 0 0 0 0 0 0 0 0 0 0 0 0 0 0 0 0 0 0 0 -0 -0 -0 -0 -0 -0 -0 -0 -0 0 0 0 0 0 0 0 0
0 0 0 0 0 0 0 0 0 0 0 0 0 0 0 0 0 0 0 0 0 0 0 0 0 0 0 0 0 0 0 0 -0 -0 -0 -0 -0 -0 0 0 0 0 0 0
0 0 0 0 0 0 0 0 0 0 0 0 0 0 0 0 0 0 0 0 0 0 0 0 0 0 0 0 0 0 0 0 0 0 0 0 0 0 0 0 0 0 0 0
0 0 0 0 0 0 0 0 0 0 0 0 0 0 0 0 0 0 0 0 0 0 0 0 0 0 0 0 0 0 0 0 0 0 0 0 0 0 0 0 0 0 0 0
0 0 0 0 0 0 0 0 0 0 0 0 0 0 0 0 0 0 0 0 0 0 0 0 0 0 0 0 0 0 0 0 0 0 0 0 0 0 0 0 0 0 0 0
0 0 0 0 0 0 0 0 0 0 0 0 0 0 0 0 0 0 0 0 0 0 0 0 0 0 0 0 0 0 0 0 0 0 0 0 0 0 0 0 0 0 0 0
0 0 0 0 0 0 0 0 0 0 0 0 0 0 0 0 0 0 0 0 0 0 0 0 0 0 0 0 0 0 0 0 0 0 0 0 0 0 0 0 0 0 0 0
0 0 0 0 0 0 0 0 0 0 0 0 0 0 0 0 0 0 0 0 0 0 0 0 0 0 0 0 0 0 0 0 0 0 0 0 0 0 0 0 0 0 0 0
0 0 0 0 0 0 0 0 0 0 0 0 0 0 0 0 0 0 0 0 0 0 0 0 0 0 0 0 0 0 0 0 0 0 0 0 0 0 0 0 0 0 0 0
0 0 0 0 0 0 0 0 0 0 0 0 0 0 0 0 0 0 0 0 0 0 0 0 0 0 0 0 0 0 0 0 0 0 0 0 0 0 0 0 0 0 0 0
0 0 0 0 0 0 0 0 0 0 0 0 0 0 0 0 0 0 0 0 0 0 0 0 0 0 0 0 0 0 0 0 0 0 0 0 0 0 0 0 0 0 0 0
0 0 0 0 0 0 0 0 0 0 0 0 0 0 0 0 0 0 0 0 0 0 0 0 0 0 0 0 0 0 0 0 0 0 0 0 0 0 0 0 0 0 0 0
Wind_Speed_500mb
37 33 30 34 37 36 31 34 27 46 37 46 38 23 19 28 33 40 49 55 66 72 80 83 84 82 78 69 55 35 28 10 38 63 75 86 87 103 94 76 81 94 86 73
29 22 21 26 32 29 27 28 28 34 39 21 10 20 20 24 32 37 46 53 65 70 75 83 82 85 84 75 66 58 49 48 37 44 59 73 92 80 67 86 96 77 83 74
20 8 16 18 12 4 6 8 9 14 23 26 22 17 15 24 28 35 47 55 65 68 71 73 79 84 88 82 74 75 78 70 60 75 88 83 55 77 88 85 85 86 79 68
16 19 8 4 3 1 8 14 17 24 23 19 18 21 14 13 21 35 47 56 60 62 66 66 72 79 85 86 88 88 85 89 93 102 96 79 81 84 77 83 82 86 85 74
7 11 22 6 7 4 2 7 11 15 20 16 19 15 4 13 18 30 39 46 49 53 57 62 66 73 81 87 100 113 110 111 103 99 102 99 96 86 90 90 88 81 70 61
3 11 7 11 6 3 2 6 1 6 16 16 21 9 5 12 17 25 34 42 47 48 55 62 66 73 82 90 97 106 101 90 94 95 87 89 79 88 91 89 78 79 73 62
16 10 8 12 16 4 8 14 15 14 25 20 10 7 11 7 13 20 33 39 42 47 54 58 64 72 77 78 87 83 87 84 86 91 88 86 81 74 69 67 67 69 65 58
5 6 5 2 13 11 9 25 22 24 23 22 24 18 11 5 7 14 23 33 39 44 50 54 59 66 72 76 72 72 76 73 79 79 82 77 77 72 67 59 57 57 50 44
8 13 24 10 25 41 34 33 28 26 28 24 21 19 14 9 4 8 15 24 33 39 45 50 54 57 62 65 66 64 65 67 69 74 76 75 75 70 68 61 58 54 50 46
19 6 12 28 19 16 27 28 29 33 29 24 22 19 19 15 10 4 10 16 25 34 41 47 51 55 58 58 60 61 62 66 65 67 71 71 71 69 65 59 53 50 46 43
22 30 24 13 33 20 34 33 32 33 32 29 23 20 21 22 18 10 6 11 17 24 33 40 44 46 49 51 52 53 53 54 58 60 60 62 64 62 59 56 49 46 44 38
13 18 12 29 33 33 22 24 31 34 34 29 27 25 25 28 24 18 9 7 12 18 23 30 35 40 43 46 48 48 49 52 52 51 50 51 50 49 49 48 45 43 40 35
16 32 33 42 31 15 33 43 45 41 36 35 30 28 29 29 30 25 17 10 8 13 17 22 28 33 39 42 44 45 46 45 44 43 42 41 39 37 35 33 32 33 32 31
29 31 20 9 22 47 38 41 41 41 41 40 39 35 30 32 33 31 24 15 10 9 14 18 23 26 31 35 37 36 36 35 35 35 35 33 30 28 26 25 25 25 24 25
13 25 38 43 32 35 33 38 40 37 33 31 28 31 32 33 35 34 29 24 15 9 9 13 17 21 25 28 28 28 28 28 27 27 25 23 21 19 18 17 16 15 14 14
36 37 25 29 36 33 35 36 40 41 37 32 28 25 28 31 30 32 34 30 23 15 10 10 13 16 20 23 23 24 23 22 22 20 19 17 14 12 11 9 7 6 5 5
32 21 37 37 35 37 38 38 39 42 35 28 28 26 26 28 32 35 35 33 29 21 16 15 15 16 18 20 21 21 21 21 22 22 21 20 18 15 12 9 7 4 2 1
31 33 31 32 37 41 40 34 33 29 28 30 24 21 22 29 31 30 32 34 31 26 22 19 18 19 21 22 21 20 20 20 20 20 20 19 17 15 13 11 9 7 5 5
23 20 20 25 29 31 30 29 28 24 22 21 17 15 16 22 28 30 30 31 29 26 23 22 22 22 23 23 24 22 21 22 22 20 19 19 18 17 17 15 14 13 12 11
15 16 19 20 20 21 21 21 22 21 18 15 12 10 9 11 16 21 22 22 24 24 24 23 24 24 25 25 24 23 24 24 23 23 22 21 20 19 18 18 17 17 17 17
13 14 14 14 14 17 19 20 20 21 21 18 15 11 7 2 5 11 13 15 19 22 24 26 26 27 26 26 25 25 26 27 27 27 27 26 25 24 22 21 19 19 19 19
8 9 10 11 12 15 15 16 17 17 17 16 14 11 7 4 1 5 11 17 19 22 23 23 23 25 26 27 28 29 30 31 32 32 31 30 30 29 28 26 25 23 22 21
6 7 8 8 9 11 14 16 16 16 16 15 13 12 11 10 10 11 14 15 16 18 19 21 24 26 27 28 29 30 31 32 33 34 34 34 33 32 32 31 30 29 27 25
5 6 8 9 10 13 14 15 17 18 18 17 16 15 13 12 11 10 13 15 17 19 20 22 23 24 24 24 25 26 27 28 30 31 32 34 35 35 35 34 33 33 32 30
6 7 9 11 13 15 16 18 18 19 17 15 15 14 13 13 13 13 14 14 14 14 14 15 15 16 17 18 19 20 21 22 23 25 26 28 30 31 33 34 35 35 35 34
8 10 12 14 17 19 19 18 16 15 14 13 13 13 12 10 9 9 10 10 11 12 13 14 15 16 16 17 18 19 20 21 22 22 22 23 25 26 28 30 33 36 37 37
11 13 15 17 17 16 14 13 12 12 12 11 10 10 9 9 9 10 10 11 12 12 13 13 14 14 15 16 16 16 16 17 19 20 21 21 21 22 24 26 29 33 36 38
Wind_Direction_500mb
297 280 288 284 283 278 264 263 265 287 297 294 306 324 319 319 335 333 332 338 343 345 347 353 357 1 1 2 9 14 30 110 207 213 213 211 203 188 189 201 213 199 201 177
289 295 295 282 275 275 270 270 268 273 279 280 308 298 311 340 341 333 334 338 344 350 354 357 0 5 4 14 24 31 50 77 115 157 167 179 182 174 188 201 172 168 169 159
286 340 309 273 258 223 269 221 249 297 316 328 316 320 347 334 338 334 336 343 351 355 358 1 4 12 14 24 33 42 59 75 86 119 125 120 136 156 167 163 160 163 160 161
286 296 259 60 132 18 221 278 251 273 296 317 305 311 308 335 340 339 348 352 358 1 3 7 11 19 25 32 39 47 50 62 73 94 106 113 116 124 133 139 140 142 156 167
276 295 287 296 68 359 319 277 265 274 297 318 313 300 158 358 0 350 353 357 2 8 10 16 20 22 29 32 39 48 50 57 68 78 92 102 104 106 103 113 117 126 128 129
211 289 307 46 23 187 182 228 10 255 297 330 324 318 39 354 7 3 2 7 9 17 22 25 30 30 33 32 41 45 50 56 67 72 81 87 90 90 96 101 103 107 106 111
276 275 284 26 331 266 269 6 348 323 311 313 307 324 305 343 2 20 9 13 18 26 28 28 30 38 40 37 40 45 51 55 62 71 72 76 80 83 87 92 94 94 96 96
286 269 275 64 303 323 333 320 321 324 316 304 296 289 266 283 351 19 27 18 26 30 33 33 35 37 41 43 43 45 52 56 61 66 73 78 79 78 77 77 77 82 86 90
279 303 316 290 271 294 292 291 299 312 319 315 299 284 258 263 288 8 30 27 24 31 35 37 38 41 41 42 47 49 54 59 61 65 72 76 79 79 78 81 83 84 89 93
310 255 285 314 326 328 344 318 307 316 308 305 289 287 255 246 245 290 14 30 34 29 34 37 40 40 41 41 41 44 48 53 57 60 65 68 74 79 81 81 82 85 90 88
282 281 300 246 336 344 327 322 317 317 315 306 292 274 253 251 245 252 324 6 30 39 35 33 36 41 43 43 42 43 46 52 55 56 59 66 68 68 72 75 75 77 75 74
277 11 304 296 312 323 327 327 321 323 315 313 301 276 261 249 246 248 270 333 15 28 34 36 33 34 38 39 39 40 42 44 47 53 57 58 62 65 67 70 70 74 75 75
280 308 294 294 304 284 315 311 308 304 302 301 304 289 266 254 245 243 252 278 337 11 23 31 32 29 31 32 33 35 39 41 43 46 49 55 57 58 65 64 67 73 75 75
283 298 305 283 307 307 314 314 308 301 291 286 286 284 268 255 247 242 241 251 281 333 2 13 20 26 27 27 27 32 38 43 43 42 40 41 46 52 52 49 53 58 57 58
233 294 297 296 305 310 315 320 319 314 299 293 282 273 262 253 247 244 239 240 246 275 330 355 4 9 14 17 21 27 31 33 34 37 40 44 45 45 42 42 44 43 47 50
296 306 302 306 316 318 322 323 322 320 305 288 290 274 258 252 246 239 237 238 242 253 276 317 339 350 356 359 4 8 13 17 19 22 27 35 41 46 55 63 67 68 56 38
317 320 310 315 321 322 325 324 321 321 315 301 293 278 257 239 238 235 232 232 235 245 268 293 312 324 333 339 343 349 352 355 357 359 2 5 7 12 14 17 20 23 18 333
306 305 306 310 317 321 324 325 324 320 317 313 298 277 257 237 237 237 233 229 231 240 255 273 291 305 315 321 325 329 330 333 336 338 338 339 340 339 337 332 327 317 301 279
320 320 321 323 323 325 328 333 334 325 319 319 309 292 268 242 233 227 223 229 232 238 250 267 280 291 297 302 306 308 308 310 312 313 315 315 315 315 313 310 304 297 287 276
330 335 334 335 338 347 355 358 0 359 348 341 341 329 296 252 231 225 213 229 238 247 259 269 276 281 285 289 291 291 294 295 296 296 295 296 296 297 296 294 290 285 279 272
339 346 357 4 13 23 26 27 30 32 35 35 36 37 37 70 192 203 198 230 245 256 262 269 274 280 284 286 287 286 285 285 284 284 282 280 278 277 277 279 281 280 275 267
346 4 12 20 29 35 33 30 28 29 32 34 37 39 40 41 287 242 246 255 264 271 274 277 280 283 285 285 283 281 280 278 277 275 273 270 267 266 265 264 265 267 267 266
355 0 9 19 21 20 14 9 3 0 357 354 349 343 333 320 305 293 287 283 282 283 285 284 284 285 285 284 281 280 278 276 274 272 269 266 264 262 259 257 256 257 259 260
21 10 7 5 359 353 340 340 341 341 340 341 343 344 340 335 324 312 304 296 293 292 291 290 290 290 289 287 286 285 282 280 277 274 271 268 265 261 257 255 252 251 251 252
8 349 347 348 339 332 332 335 336 339 340 339 340 336 330 323 315 313 311 310 311 311 311 310 308 305 301 298 296 294 292 289 285 282 278 273 269 265 261 256 252 249 246 244
330 333 335 331 329 330 332 336 340 340 337 332 330 331 331 333 337 341 346 346 341 333 324 316 311 306 303 301 300 297 294 291 289 287 284 280 276 272 267 261 255 249 244 241
322 327 329 328 326 329 333 336 335 335 333 335 339 354 6 11 5 353 346 341 336 330 325 321 316 313 312 312 312 315 317 315 305 295 288 285 281 275 270 264 258 251 244 239
Wind_Speed_850mb
37 33 30 34 37 36 31 34 27 46 37 46 38 23 19 28 33 40 49 55 66 72 80 83 84 82 78 69 55 35 28 10 38 63 75 86 87 103 94 76 81 94 86 73
29 22 21 26 32 29 27 28 28 34 39 21 10 20 20 24 32 37 46 53 65 70 75 83 82 85 84 75 66 58 49 48 37 44 59 73 92 80 67 86 96 77 83 74
20 8 16 18 12 4 6 8 9 14 23 26 22 17 15 24 28 35 47 55 65 68 71 73 79 84 88 82 74 75 78 70 60 75 88 83 55 77 88 85 85 86 79 68
16 19 8 4 3 1 8 14 17 24 23 19 18 21 14 13 21 35 47 56 60 62 66 66 72 79 85 86 88 88 85 89 93 102 96 79 81 84 77 83 82 86 85 74
7 11 22 6 7 4 2 7 11 15 20 16 19 15 4 13 18 30 39 46 49 53 57 62 66 73 81 87 100 113 110 111 103 99 102 99 96 86 90 90 88 81 70 61
3 11 7 11 6 3 2 6 1 6 16 16 21 9 5 12 17 25 34 42 47 48 55 62 66 73 82 90 97 106 101 90 94 95 87 89 79 88 91 89 78 79 73 62
16 10 8 12 16 4 8 14 15 14 25 20 10 7 11 7 13 20 33 39 42 47 54 58 64 72 77 78 87 83 87 84 86 91 88 86 81 74 69 67 67 69 65 58
5 6 5 2 13 11 9 25 22 24 23 22 24 18 11 5 7 14 23 33 39 44 50 54 59 66 72 76 72 72 76 73 79 79 82 77 77 72 67 59 57 57 50 44
8 13 24 10 25 41 34 33 28 26 28 24 21 19 14 9 4 8 15 24 33 39 45 50 54 57 62 65 66 64 65 67 69 74 76 75 75 70 68 61 58 54 50 46
19 6 12 28 19 16 27 28 29 33 29 24 22 19 19 15 10 4 10 16 25 34 41 47 51 55 58 58 60 61 62 66 65 67 71 71 71 69 65 59 53 50 46 43
22 30 24 13 33 20 34 33 32 33 32 29 23 20 21 22 18 10 6 11 17 24 33 40 44 46 49 51 52 53 53 54 58 60 60 62 64 62 59 56 49 46 44 38
13 18 12 29 33 33 22 24 31 34 34 29 27 25 25 28 24 18 9 7 12 18 23 30 35 40 43 46 48 48 49 52 52 51 50 51 50 49 49 48 45 43 40 35
16 32 33 42 31 15 33 43 45 41 36 35 30 28 29 29 30 25 17 10 8 13 17 22 28 33 39 42 44 45 46 45 44 43 42 41 39 37 35 33 32 33 32 31
29 31 20 9 22 47 38 41 41 41 41 40 39 35 30 32 33 31 24 15 10 9 14 18 23 26 31 35 37 36 36 35 35 35 35 33 30 28 26 25 25 25 24 25
13 25 38 43 32 35 33 38 40 37 33 31 28 31 32 33 35 34 29 24 15 9 9 13 17 21 25 28 28 28 28 28 27 27 25 23 21 19 18 17 16 15 14 14
36 37 25 29 36 33 35 36 40 41 37 32 28 25 28 31 30 32 34 30 23 15 10 10 13 16 20 23 23 24 23 22 22 20 19 17 14 12 11 9 7 6 5 5
32 21 37 37 35 37 38 38 39 42 35 28 28 26 26 28 32 35 35 33 29 21 16 15 15 16 18 20 21 21 21 21 22 22 21 20 18 15 12 9 7 4 2 1
31 33 31 32 37 41 40 34 33 29 28 30 24 21 22 29 31 30 32 34 31 26 22 19 18 19 21 22 21 20 20 20 20 20 20 19 17 15 13 11 9 7 5 5
23 20 20 25 29 31 30 29 28 24 22 21 17 15 16 22 28 30 30 31 29 26 23 22 22 22 23 23 24 22 21 22 22 20 19 19 18 17 17 15 14 13 12 11
15 16 19 20 20 21 21 21 22 21 18 15 12 10 9 11 16 21 22 22 24 24 24 23 24 24 25 25 24 23 24 24 23 23 22 21 20 19 18 18 17 17 17 17
13 14 14 14 14 17 19 20 20 21 21 18 15 11 7 2 5 11 13 15 19 22 24 26 26 27 26 26 25 25 26 27 27 27 27 26 25 24 22 21 19 19 19 19
8 9 10 11 12 15 15 16 17 17 17 16 14 11 7 4 1 5 11 17 19 22 23 23 23 25 26 27 28 29 30 31 32 32 31 30 30 29 28 26 25 23 22 21
6 7 8 8 9 11 14 16 16 16 16 15 13 12 11 10 10 11 14 15 16 18 19 21 24 26 27 28 29 30 31 32 33 34 34 34 33 32 32 31 30 29 27 25
5 6 8 9 10 13 14 15 17 18 18 17 16 15 13 12 11 10 13 15 17 19 20 22 23 24 24 24 25 26 27 28 30 31 32 34 35 35 35 34 33 33 32 30
6 7 9 11 13 15 16 18 18 19 17 15 15 14 13 13 13 13 14 14 14 14 14 15 15 16 17 18 19 20 21 22 23 25 26 28 30 31 33 34 35 35 35 34
8 10 12 14 17 19 19 18 16 15 14 13 13 13 12 10 9 9 10 10 11 12 13 14 15 16 16 17 18 19 20 21 22 22 22 23 25 26 28 30 33 36 37 37
11 13 15 17 17 16 14 13 12 12 12 11 10 10 9 9 9 10 10 11 12 12 13 13 14 14 15 16 16 16 16 17 19 20 21 21 21 22 24 26 29 33 36 38
Wind_Direction_850mb
297 280 288 284 283 278 264 263 265 287 297 294 306 324 319 319 335 333 332 338 343 345 347 353 357 1 1 2 9 14 30 110 207 213 213 211 203 188 189 201 213 199 201 177
289 295 295 282 275 275 270 270 268 273 279 280 308 298 311 340 341 333 334 338 344 350 354 357 0 5 4 14 24 31 50 77 115 157 167 179 182 174 188 201 172 168 169 159
286 340 309 273 258 223 269 221 249 297 316 328 316 320 347 334 338 334 336 343 351 355 358 1 4 12 14 24 33 42 59 75 86 119 125 120 136 156 167 163 160 163 160 161
286 296 259 60 132 18 221 278 251 273 296 317 305 311 308 335 340 339 348 352 358 1 3 7 11 19 25 32 39 47 50 62 73 94 106 113 116 124 133 139 140 142 156 167
276 295 287 296 68 359 319 277 265 274 297 318 313 300 158 358 0 350 353 357 2 8 10 16 20 22 29 32 39 48 50 57 68 78 92 102 104 106 103 113 117 126 128 129
211 289 307 46 23 187 182 228 10 255 297 330 324 318 39 354 7 3 2 7 9 17 22 25 30 30 33 32 41 45 50 56 67 72 81 87 90 90 96 101 103 107 106 111
276 275 284 26 331 266 269 6 348 323 311 313 307 324 305 343 2 20 9 13 18 26 28 28 30 38 40 37 40 45 51 55 62 71 72 76 80 83 87 92 94 94 96 96
286 269 275 64 303 323 333 320 321 324 316 304 296 289 266 283 351 19 27 18 26 30 33 33 35 37 41 43 43 45 52 56 61 66 73 78 79 78 77 77 77 82 86 90
279 303 316 290 271 294 292 291 299 312 319 315 299 284 258 263 288 8 30 27 24 31 35 37 38 41 41 42 47 49 54 59 61 65 72 76 79 79 78 81 83 84 89 93
310 255 285 314 326 328 344 318 307 316 308 305 289 287 255 246 245 290 14 30 34 29 34 37 40 40 41 41 41 44 48 53 57 60 65 68 74 79 81 81 82 85 90 88
282 281 300 246 336 344 327 322 317 317 315 306 292 274 253 251 245 252 324 6 30 39 35 33 36 41 43 43 42 43 46 52 55 56 59 66 68 68 72 75 75 77 75 74
277 11 304 296 312 323 327 327 321 323 315 313 301 276 261 249 246 248 270 333 15 28 34 36 33 34 38 39 39 40 42 44 47 53 57 58 62 65 67 70 70 74 75 75
280 308 294 294 304 284 315 311 308 304 302 301 304 289 266 254 245 243 252 278 337 11 23 31 32 29 31 32 33 35 39 41 43 46 49 55 57 58 65 64 67 73 75 75
283 298 305 283 307 307 314 314 308 301 291 286 286 284 268 255 247 242 241 251 281 333 2 13 20 26 27 27 27 32 38 43 43 42 40 41 46 52 52 49 53 58 57 58
233 294 297 296 305 310 315 320 319 314 299 293 282 273 262 253 247 244 239 240 246 275 330 355 4 9 14 17 21 27 31 33 34 37 40 44 45 45 42 42 44 43 47 50
296 306 302 306 316 318 322 323 322 320 305 288 290 274 258 252 246 239 237 238 242 253 276 317 339 350 356 359 4 8 13 17 19 22 27 35 41 46 55 63 67 68 56 38
317 320 310 315 321 322 325 324 321 321 315 301 293 278 257 239 238 235 232 232 235 245 268 293 312 324 333 339 343 349 352 355 357 359 2 5 7 12 14 17 20 23 18 333
306 305 306 310 317 321 324 325 324 320 317 313 298 277 257 237 237 237 233 229 231 240 255 273 291 305 315 321 325 329 330 333 336 338 338 339 340 339 337 332 327 317 301 279
320 320 321 323 323 325 328 333 334 325 319 319 309 292 268 242 233 227 223 229 232 238 250 267 280 291 297 302 306 308 308 310 312 313 315 315 315 315 313 310 304 297 287 276
330 335 334 335 338 347 355 358 0 359 348 341 341 329 296 252 231 225 213 229 238 247 259 269 276 281 285 289 291 291 294 295 296 296 295 296 296 297 296 294 290 285 279 272
339 346 357 4 13 23 26 27 30 32 35 35 36 37 37 70 192 203 198 230 245 256 262 269 274 280 284 286 287 286 285 285 284 284 282 280 278 277 277 279 281 280 275 267
346 4 12 20 29 35 33 30 28 29 32 34 37 39 40 41 287 242 246 255 264 271 274 277 280 283 285 285 283 281 280 278 277 275 273 270 267 266 265 264 265 267 267 266
355 0 9 19 21 20 14 9 3 0 357 354 349 343 333 320 305 293 287 283 282 283 285 284 284 285 285 284 281 280 278 276 274 272 269 266 264 262 259 257 256 257 259 260
21 10 7 5 359 353 340 340 341 341 340 341 343 344 340 335 324 312 304 296 293 292 291 290 290 290 289 287 286 285 282 280 277 274 271 268 265 261 257 255 252 251 251 252
8 349 347 348 339 332 332 335 336 339 340 339 340 336 330 323 315 313 311 310 311 311 311 310 308 305 301 298 296 294 292 289 285 282 278 273 269 265 261 256 252 249 246 244
330 333 335 331 329 330 332 336 340 340 337 332 330 331 331 333 337 341 346 346 341 333 324 316 311 306 303 301 300 297 294 291 289 287 284 280 276 272 267 261 255 249 244 241
322 327 329 328 326 329 333 336 335 335 333 335 339 354 6 11 5 353 346 341 336 330 325 321 316 313 312 312 312 315 317 315 305 295 288 285 281 275 270 264 258 251 244 239